User: anonymous   Login
Location: Baix
(44.7118°N, 4.7648°E)
Time: 20:35:15
(UTC+00:00)
Language:

Helios 1B rocket - Orbit

View from above orbital plane
View from above orbital plane
View from above satellite
View from above satellite

Ground track
Ground track

The orbit data is extracted from the following two-line orbital elements,

1 25979U 99064C   20304.35061251  .00000889  00000-0  84703-4 0  9993
2 25979  98.1464 227.8198 0005638 193.8482 166.2584 14.96082033134219
Epoch (UTC): 30 October 2020 08:24:52
Eccentricity: 0.0005638
inclination: 98.1464°
perigee height: 575 km
apogee height: 583 km
right ascension of ascending node: 227.8198°
argument of perigee: 193.8482°
revolutions per day: 14.96082033
mean anomaly at epoch: 166.2584°
orbit number at epoch: 13421

The dashed part of the orbit path shows where the satellite is in the earth's shadow,  

DLR